,,Stat6,,Stat2,,Stat8,,Stat9,,Stat10,,Wind1,,Wind1,
time,status,PA1M_AVG,status,PR1M_SUM,status,RH1M_AVG,status,SR1M_AVG,status,TA1M_AVG,status,W1dAve1m,status,W1sAve1m,
2007-08-13, 07:00:03,VALID,916.846,VALID,0,VALID,100,VALID,52.9632,VALID,20.2661,VALID,250,VALID,0.773438,
2007-08-13, 07:01:00,VALID,916.887,VALID,0,VALID,100,VALID,52.9802,VALID,20.2826,VALID,253,VALID,0.219477,
2007-08-13, 07:02:01,VALID,916.929,VALID,0,VALID,100,VALID,53.7783,VALID,20.3245,VALID,253,VALID,0.0354421,
2007-08-13, 07:03:01,VALID,916.94,VALID,0,VALID,100,VALID,54.6443,VALID,20.3643,VALID,253,VALID,0.0670139,
2007-08-13, 07:04:00,VALID,916.964,VALID,0,VALID,100,VALID,54.5764,VALID,20.4024,VALID,273,VALID,0.376563,
2007-08-13, 07:05:00,VALID,916.983,VALID,0,VALID,100,VALID,54.2877,VALID,20.4262,VALID,357,VALID,0.803544,
2007-08-13, 07:06:00,VALID,916.992,VALID,0,VALID,100,VALID,53.3877,VALID,20.4094,VALID,31,VALID,1.23801,
2007-08-13, 07:07:01,VALID,917.01,VALID,0,VALID,100,VALID,57.0047,VALID,20.3967,VALID,30,VALID,1.12083,
2007-08-13, 07:08:01,VALID,917.016,VALID,0,VALID,100,VALID,60.6216,VALID,20.3835,VALID,24,VALID,1.0221,
2007-08-13, 07:09:01,VALID,917.039,VALID,0,VALID,100,VALID,60.6216,VALID,20.3964,VALID,34,VALID,0.989583,
2007-08-13, 07:10:00,VALID,917.046,VALID,0,VALID,100,VALID,57.8877,VALID,20.4059,VALID,34,VALID,0.702943,
2007-08-13, 07:11:00,VALID,917.063,VALID,0,VALID,100,VALID,57.8707,VALID,20.4257,VALID,38,VALID,0.312881,
2007-08-13, 07:12:00,VALID,917.097,VALID,0,VALID,100,VALID,59.0933,VALID,20.4613,VALID,35,VALID,0.614644,
2007-08-13, 07:13:01,VALID,917.121,VALID,0,VALID,100,VALID,58.8895,VALID,20.4713,VALID,36,VALID,1.01635,
2007-08-13, 07:14:00,VALID,917.142,VALID,0,VALID,100,VALID,57.7688,VALID,20.4294,VALID,32,VALID,0.948765,
2007-08-13, 07:15:00,VALID,917.157,VALID,0,VALID,100,VALID,55.4934,VALID,20.4359,VALID,42,VALID,0.993164,
2007-08-13, 07:16:00,VALID,917.16,VALID,0,VALID,100,VALID,53.2009,VALID,20.4324,VALID,36,VALID,1.1224,
2007-08-13, 07:17:00,VALID,917.164,VALID,0,VALID,100,VALID,53.5236,VALID,20.4359,VALID,25,VALID,1.16667,
2007-08-13, 07:18:00,VALID,917.158,VALID,0,VALID,100,VALID,53.999,VALID,20.4232,VALID,23,VALID,1.24479,
2007-08-13, 07:19:00,VALID,917.136,VALID,0,VALID,100,VALID,51.333,VALID,20.4164,VALID,7,VALID,1.02126,
2007-08-13, 07:20:00,VALID,917.114,VALID,0,VALID,100,VALID,48.8199,VALID,20.4134,VALID,13,VALID,1.36979,
2007-08-13, 07:21:00,VALID,917.116,VALID,0,VALID,100,VALID,46.6124,VALID,20.3707,VALID,21,VALID,1.50076,
2007-08-13, 07:22:00,VALID,917.1,VALID,0,VALID,100,VALID,45.8992,VALID,20.3935,VALID,26,VALID,1.04557,
2007-08-13, 07:23:00,VALID,917.108,VALID,0,VALID,100,VALID,43.386,VALID,20.4094,VALID,7,VALID,0.697545,
2007-08-13, 07:24:00,VALID,917.122,VALID,0,VALID,100,VALID,42.2143,VALID,20.4324,VALID,45,VALID,1.08365,
2007-08-13, 07:25:00,VALID,917.137,VALID,0,VALID,100,VALID,42.1125,VALID,20.4619,VALID,13,VALID,0.528646,
2007-08-13, 07:26:00,VALID,917.156,VALID,0,VALID,100,VALID,41.5861,VALID,20.4808,VALID,28,VALID,0.860742,
2007-08-13, 07:27:01,VALID,917.179,VALID,0,VALID,100,VALID,44.5917,VALID,20.497,VALID,33,VALID,0.624818,
2007-08-13, 07:28:01,VALID,917.177,VALID,0,VALID,100,VALID,47.3595,VALID,20.5195,VALID,35,VALID,0.729883,
2007-08-13, 07:29:01,VALID,917.19,VALID,0,VALID,100,VALID,53.2519,VALID,20.5455,VALID,32,VALID,1.13953,
2007-08-13, 07:30:01,VALID,917.199,VALID,0,VALID,100,VALID,59.8235,VALID,20.556,VALID,26,VALID,0.346037,
2007-08-13, 07:31:01,VALID,917.182,VALID,0,VALID,100,VALID,65.0366,VALID,20.5687,VALID,309,VALID,0.378906,
2007-08-13, 07:32:01,VALID,917.203,VALID,0,VALID,100,VALID,67.0913,VALID,20.533,VALID,291,VALID,0.119141,
2007-08-13, 07:33:00,VALID,917.232,VALID,0,VALID,100,VALID,70.6063,VALID,20.5333,VALID,289,VALID,0.301669,
2007-08-13, 07:34:01,VALID,917.262,VALID,0,VALID,100,VALID,74.6987,VALID,20.569,VALID,287,VALID,0.166243,
2007-08-13, 07:35:01,VALID,917.272,VALID,0,VALID,100,VALID,72.7798,VALID,20.6079,VALID,287,VALID,0.043423,
2007-08-13, 07:36:01,VALID,917.302,VALID,0,VALID,100,VALID,82.5099,VALID,20.6596,VALID,287,VALID,0.116992,
2007-08-13, 07:37:01,VALID,917.336,VALID,0,VALID,100,VALID,84.9891,VALID,20.7147,VALID,287,VALID,0,
2007-08-13, 07:38:01,VALID,917.351,VALID,0,VALID,100,VALID,83.274,VALID,20.7307,VALID,287,VALID,0.0349702,
2007-08-13, 07:39:01,VALID,917.381,VALID,0,VALID,100,VALID,88.8607,VALID,20.7215,VALID,271,VALID,0.625908,
2007-08-13, 07:40:01,VALID,917.401,VALID,0,VALID,100,VALID,89.1494,VALID,20.6793,VALID,272,VALID,0.260975,
2007-08-13, 07:41:01,VALID,917.41,VALID,0,VALID,100,VALID,88.9796,VALID,20.6826,VALID,273,VALID,0.0610795,
2007-08-13, 07:42:00,VALID,917.422,VALID,0,VALID,100,VALID,87.6211,VALID,20.7083,VALID,273,VALID,0.0164062,
2007-08-13, 07:43:00,VALID,917.425,VALID,0,VALID,100,VALID,85.4645,VALID,20.7412,VALID,273,VALID,0.205793,
2007-08-13, 07:44:00,VALID,917.448,VALID,0,VALID,100,VALID,81.8476,VALID,20.7604,VALID,273,VALID,0.149554,
2007-08-13, 07:45:00,VALID,917.438,VALID,0,VALID,100,VALID,80.0986,VALID,20.7832,VALID,273,VALID,0.0623183,
2007-08-13, 07:46:00,VALID,917.447,VALID,0,VALID,100,VALID,80.574,VALID,20.7999,VALID,273,VALID,0.0361555,
2007-08-13, 07:47:00,VALID,917.453,VALID,0,VALID,100,VALID,87.1117,VALID,20.8197,VALID,272,VALID,0.128729,
2007-08-13, 07:48:00,VALID,917.463,VALID,0,VALID,100,VALID,93.887,VALID,20.8191,VALID,250,VALID,0.212573,
2007-08-13, 07:49:00,VALID,917.474,VALID,0,VALID,100,VALID,104.67,VALID,20.8621,VALID,249,VALID,0.196094,
2007-08-13, 07:50:00,VALID,917.495,VALID,0,VALID,100,VALID,111.292,VALID,20.9262,VALID,249,VALID,0.00243056,
2007-08-13, 07:51:00,VALID,917.51,VALID,0,VALID,100,VALID,115.3,VALID,20.949,VALID,249,VALID,0.000585938,
2007-08-13, 07:52:00,VALID,917.526,VALID,0,VALID,100,VALID,127.305,VALID,21.0006,VALID,249,VALID,0.151163,
2007-08-13, 07:53:00,VALID,917.543,VALID,0,VALID,100,VALID,139.82,VALID,21.0883,VALID,251,VALID,0.0375,
2007-08-13, 07:54:00,VALID,917.554,VALID,0,VALID,100,VALID,156.003,VALID,21.1532,VALID,252,VALID,0.0512576,
2007-08-13, 07:55:00,VALID,917.576,VALID,0,VALID,100,VALID,177.874,VALID,21.2346,VALID,252,VALID,0,
2007-08-13, 07:56:00,VALID,917.59,VALID,0,VALID,100,VALID,198.268,VALID,21.3282,VALID,252,VALID,0.0189986,
2007-08-13, 07:57:00,VALID,917.59,VALID,0,VALID,99.2398,VALID,217.457,VALID,21.4031,VALID,252,VALID,0.214367,
2007-08-13, 07:58:00,VALID,917.599,VALID,0,VALID,98.5824,VALID,235.864,VALID,21.4096,VALID,252,VALID,0.0481468,
2007-08-13, 07:59:00,VALID,917.613,VALID,0,VALID,98.5392,VALID,252.013,VALID,21.4581,VALID,252,VALID,0.0505952,
2007-08-13, 08:00:00,VALID,917.632,VALID,0,VALID,97.986,VALID,261.709,VALID,21.4938,VALID,264,VALID,0.321456,
2007-08-13, 08:01:00,VALID,917.647,VALID,0,VALID,97.8792,VALID,253.371,VALID,21.5687,VALID,264,VALID,0.201087,
2007-08-13, 08:02:00,VALID,917.665,VALID,0,VALID,97.3744,VALID,252.08,VALID,21.6012,VALID,264,VALID,0.229581,
2007-08-13, 08:03:00,VALID,917.701,VALID,0,VALID,97.7165,VALID,259.229,VALID,21.6988,VALID,264,VALID,0.0799851,
2007-08-13, 08:04:00,VALID,917.716,VALID,0,VALID,97.1748,VALID,268.942,VALID,21.7992,VALID,264,VALID,0.142014,
2007-08-13, 08:05:00,VALID,917.735,VALID,0,VALID,96.4207,VALID,276.872,VALID,21.8614,VALID,264,VALID,0.0887277,
2007-08-13, 08:06:00,VALID,917.748,VALID,0,VALID,95.5713,VALID,281.661,VALID,21.9099,VALID,264,VALID,0.274609,
2007-08-13, 08:07:00,VALID,917.752,VALID,0,VALID,95.2228,VALID,269.808,VALID,21.9356,VALID,265,VALID,0.224516,
2007-08-13, 08:08:00,VALID,917.754,VALID,0,VALID,94.9138,VALID,259.365,VALID,21.9472,VALID,267,VALID,0.289773,
2007-08-13, 08:09:00,VALID,917.756,VALID,0,VALID,94.4967,VALID,289.285,VALID,21.9959,VALID,277,VALID,0.583008,
2007-08-13, 08:10:00,VALID,917.78,VALID,0,VALID,94.2818,VALID,307.778,VALID,22.0159,VALID,288,VALID,0.432405,
2007-08-13, 08:11:00,VALID,917.776,VALID,0,VALID,94.0695,VALID,282.714,VALID,22.0876,VALID,288,VALID,0.311914,
2007-08-13, 08:12:00,VALID,917.79,VALID,0,VALID,93.8775,VALID,265.258,VALID,22.1458,VALID,291,VALID,0.362424,
2007-08-13, 08:13:00,VALID,917.801,VALID,0,VALID,93.0916,VALID,256.512,VALID,22.1623,VALID,265,VALID,0.438643,
2007-08-13, 08:14:00,VALID,917.811,VALID,0,VALID,93.276,VALID,254.78,VALID,22.2012,VALID,270,VALID,0.66311,
2007-08-13, 08:15:00,VALID,917.806,VALID,0,VALID,93.5977,VALID,261.793,VALID,22.2497,VALID,277,VALID,0.306463,
2007-08-13, 08:16:00,VALID,917.812,VALID,0,VALID,93.9983,VALID,277.654,VALID,22.3344,VALID,278,VALID,0.0483631,
2007-08-13, 08:17:00,VALID,917.826,VALID,0,VALID,93.5977,VALID,275.989,VALID,22.4418,VALID,288,VALID,0.240184,
2007-08-13, 08:18:00,VALID,917.841,VALID,0,VALID,92.6059,VALID,264.799,VALID,22.4938,VALID,297,VALID,0.18657,
2007-08-13, 08:19:00,VALID,917.854,VALID,0,VALID,92.5665,VALID,274.903,VALID,22.6071,VALID,297,VALID,0.0305233,
2007-08-13, 08:20:00,VALID,917.865,VALID,0,VALID,91.7323,VALID,260.724,VALID,22.7246,VALID,336,VALID,0.11044,
2007-08-13, 08:21:00,VALID,917.887,VALID,0,VALID,91.3444,VALID,248.531,VALID,22.8285,VALID,26,VALID,0.462695,
2007-08-13, 08:22:00,VALID,917.886,VALID,0,VALID,91.3368,VALID,254.407,VALID,22.9744,VALID,42,VALID,0.302641,
2007-08-13, 08:23:00,VALID,917.884,VALID,0,VALID,91.1321,VALID,278.078,VALID,23.1014,VALID,37,VALID,0.595526,
2007-08-13, 08:24:00,VALID,917.881,VALID,0,VALID,90.5052,VALID,269.452,VALID,23.1728,VALID,22,VALID,0.530048,
2007-08-13, 08:25:00,VALID,917.889,VALID,0,VALID,89.4714,VALID,260.843,VALID,23.1761,VALID,28,VALID,1.28497,
2007-08-13, 08:26:00,VALID,917.898,VALID,0,VALID,88.8953,VALID,258.89,VALID,23.1595,VALID,32,VALID,1.22852,
2007-08-13, 08:27:00,VALID,917.915,VALID,0,VALID,88.95,VALID,252.845,VALID,23.2215,VALID,22,VALID,0.580124,
2007-08-13, 08:28:00,VALID,917.93,VALID,0,VALID,88.243,VALID,242.588,VALID,23.2573,VALID,4,VALID,0.375,
2007-08-13, 08:29:00,VALID,917.939,VALID,0,VALID,88.2036,VALID,236,VALID,23.2413,VALID,299,VALID,0.50641,
2007-08-13, 08:30:00,VALID,917.953,VALID,0,VALID,88.2519,VALID,243.064,VALID,23.1731,VALID,280,VALID,0.421697,
2007-08-13, 08:31:00,VALID,917.963,VALID,0,VALID,88.9398,VALID,276.261,VALID,23.1016,VALID,292,VALID,0.0655887,
2007-08-13, 08:32:00,VALID,917.982,VALID,0,VALID,89.6278,VALID,299.372,VALID,23.1279,VALID,284,VALID,0.360491,
2007-08-13, 08:33:00,VALID,917.988,VALID,0,VALID,89.7855,VALID,269.707,VALID,23.1415,VALID,339,VALID,0.25651,
2007-08-13, 08:34:00,VALID,917.998,VALID,0,VALID,89.835,VALID,280.863,VALID,23.1613,VALID,305,VALID,0.448661,
2007-08-13, 08:35:00,VALID,918.015,VALID,0,VALID,88.3333,VALID,253.846,VALID,23.125,VALID,276,VALID,0.598772,
2007-08-13, 08:36:00,VALID,918.043,VALID,0,VALID,88.1858,VALID,245.645,VALID,22.9785,VALID,262,VALID,0.606136,
2007-08-13, 08:37:00,VALID,918.065,VALID,0,VALID,89.5985,VALID,346.324,VALID,22.8852,VALID,261,VALID,0.494048,
2007-08-13, 08:38:00,VALID,918.081,VALID,0,VALID,90.5649,VALID,487.18,VALID,22.9068,VALID,260,VALID,0.246875,
2007-08-13, 08:39:00,VALID,918.089,VALID,0,VALID,90.5014,VALID,481.491,VALID,23.0308,VALID,252,VALID,0.625868,
2007-08-13, 08:40:00,VALID,918.117,VALID,0,VALID,90.6145,VALID,484.82,VALID,23.1149,VALID,279,VALID,0.555233,
2007-08-13, 08:41:00,VALID,918.141,VALID,0,VALID,90.4861,VALID,503.855,VALID,23.2457,VALID,284,VALID,0.494368,
2007-08-13, 08:42:00,VALID,918.158,VALID,0,VALID,89.0403,VALID,518.985,VALID,23.3464,VALID,299,VALID,0.766016,
2007-08-13, 08:43:00,VALID,918.181,VALID,0,VALID,88.4452,VALID,489.829,VALID,23.3822,VALID,303,VALID,0.93457,
2007-08-13, 08:44:00,VALID,918.202,VALID,0,VALID,87.8437,VALID,378.774,VALID,23.3269,VALID,329,VALID,0.840661,
2007-08-13, 08:45:00,VALID,918.232,VALID,0,VALID,87.4991,VALID,313.059,VALID,23.1932,VALID,325,VALID,0.774023,
2007-08-13, 08:46:00,VALID,918.258,VALID,0,VALID,88.0027,VALID,375.684,VALID,23.0954,VALID,321,VALID,0.209635,
2007-08-13, 08:47:00,VALID,918.265,VALID,0,VALID,88.2506,VALID,355.256,VALID,23.1772,VALID,339,VALID,0.110417,
2007-08-13, 08:48:00,VALID,918.284,VALID,0,VALID,87.6822,VALID,321.685,VALID,23.2942,VALID,12,VALID,0.531613,
2007-08-13, 08:49:00,VALID,918.283,VALID,0,VALID,87.1672,VALID,370.131,VALID,23.3816,VALID,337,VALID,0.449123,
2007-08-13, 08:50:00,VALID,918.287,VALID,0,VALID,87.0299,VALID,230.82,VALID,23.4799,VALID,342,VALID,0.383681,
2007-08-13, 08:51:00,VALID,918.287,VALID,0,VALID,86.8404,VALID,235.286,VALID,23.5641,VALID,272,VALID,0.457961,
2007-08-13, 08:52:00,VALID,918.283,VALID,0,VALID,85.8244,VALID,316.353,VALID,23.6034,VALID,263,VALID,0.380208,
2007-08-13, 08:53:00,VALID,918.283,VALID,0,VALID,85.3908,VALID,467.72,VALID,23.6122,VALID,238,VALID,0.2117,
2007-08-13, 08:54:00,VALID,918.276,VALID,0,VALID,85.1784,VALID,491.086,VALID,23.7362,VALID,191,VALID,0.0826982,
2007-08-13, 08:55:00,VALID,918.278,VALID,0,VALID,84.3341,VALID,427.068,VALID,23.8012,VALID,74,VALID,0.498437,
2007-08-13, 08:56:00,VALID,918.281,VALID,0,VALID,84.3799,VALID,513.347,VALID,23.9477,VALID,47,VALID,0.817229,
2007-08-13, 08:57:00,VALID,918.298,VALID,0,VALID,82.9658,VALID,535.524,VALID,24.1261,VALID,58,VALID,0.776101,
2007-08-13, 08:58:00,VALID,918.294,VALID,0,VALID,81.7985,VALID,521.872,VALID,24.2723,VALID,152,VALID,0.509411,
2007-08-13, 08:59:00,VALID,918.295,VALID,0,VALID,81.4653,VALID,499.695,VALID,24.4513,VALID,163,VALID,0.251715,
2007-08-13, 09:00:00,VALID,918.306,VALID,0,VALID,81.0661,VALID,496.265,VALID,24.659,VALID,176,VALID,0.248757,
2007-08-13, 09:01:00,VALID,918.312,VALID,0,VALID,79.8771,VALID,516.693,VALID,24.7926,VALID,238,VALID,0.406445,
2007-08-13, 09:02:00,VALID,918.312,VALID,0,VALID,80.6502,VALID,518.646,VALID,24.8868,VALID,140,VALID,0.412946,
2007-08-13, 09:03:00,VALID,918.316,VALID,0,VALID,79.825,VALID,502.259,VALID,25.0916,VALID,177,VALID,0.447129,
2007-08-13, 09:04:00,VALID,918.311,VALID,0,VALID,78.43,VALID,277.603,VALID,25.2056,VALID,173,VALID,1.02096,
2007-08-13, 09:05:00,VALID,918.309,VALID,0,VALID,78.4771,VALID,468.926,VALID,25.0851,VALID,146,VALID,0.433036,
2007-08-13, 09:06:00,VALID,918.301,VALID,0,VALID,79.1294,VALID,456.564,VALID,25.0331,VALID,141,VALID,0.233984,
2007-08-13, 09:07:00,VALID,918.322,VALID,0,VALID,79.6024,VALID,439.888,VALID,25.1445,VALID,86,VALID,0.208212,
2007-08-13, 09:08:00,VALID,918.322,VALID,0,VALID,79.4028,VALID,239.141,VALID,25.3197,VALID,129,VALID,0.369496,
2007-08-13, 09:09:00,VALID,918.338,VALID,0,VALID,78.5,VALID,241.366,VALID,25.1218,VALID,84,VALID,1.11319,
2007-08-13, 09:10:00,VALID,918.349,VALID,0,VALID,80.5587,VALID,250.705,VALID,24.7902,VALID,72,VALID,0.767149,
2007-08-13, 09:11:00,VALID,918.385,VALID,0,VALID,80.1569,VALID,255.952,VALID,24.709,VALID,134,VALID,0.650036,
2007-08-13, 09:12:00,VALID,918.405,VALID,0,VALID,81.3852,VALID,261.726,VALID,24.5657,VALID,135,VALID,0.215909,
2007-08-13, 09:13:00,VALID,918.427,VALID,0,VALID,81.6217,VALID,255.663,VALID,24.5433,VALID,181,VALID,0.419922,
2007-08-13, 09:14:00,VALID,918.44,VALID,0,VALID,81.7972,VALID,249.279,VALID,24.5344,VALID,228,VALID,0.709302,
2007-08-13, 09:15:00,VALID,918.455,VALID,0,VALID,82.1507,VALID,253.133,VALID,24.4756,VALID,207,VALID,0.532885,
2007-08-13, 09:16:00,VALID,918.462,VALID,0,VALID,82.7115,VALID,252.963,VALID,24.4662,VALID,188,VALID,0.26456,
2007-08-13, 09:17:00,VALID,918.477,VALID,0,VALID,82.7929,VALID,239.073,VALID,24.4786,VALID,195,VALID,0.454397,
2007-08-13, 09:18:00,VALID,918.491,VALID,0,VALID,82.3173,VALID,241.179,VALID,24.4691,VALID,180,VALID,0.715402,
2007-08-13, 09:19:00,VALID,918.507,VALID,0,VALID,82.6454,VALID,251.809,VALID,24.4708,VALID,184,VALID,0.212612,
2007-08-13, 09:20:00,VALID,918.505,VALID,0,VALID,82.255,VALID,274.376,VALID,24.5518,VALID,178,VALID,0.227289,
2007-08-13, 09:21:00,VALID,918.507,VALID,0,VALID,81.5683,VALID,293.751,VALID,24.6236,VALID,236,VALID,0.408736,
2007-08-13, 09:22:00,VALID,918.508,VALID,0,VALID,81.3979,VALID,311.106,VALID,24.6658,VALID,251,VALID,0.459135,
2007-08-13, 09:23:00,VALID,918.515,VALID,0,VALID,81.2415,VALID,341.722,VALID,24.6333,VALID,288,VALID,0.339757,
2007-08-13, 09:24:00,VALID,918.507,VALID,0,VALID,81.1449,VALID,373.391,VALID,24.6301,VALID,263,VALID,0.741806,
2007-08-13, 09:25:00,VALID,918.508,VALID,0,VALID,82.5411,VALID,518.442,VALID,24.5651,VALID,256,VALID,0.81686,
2007-08-13, 09:26:00,VALID,918.503,VALID,0,VALID,83.6245,VALID,575.158,VALID,24.5583,VALID,225,VALID,0.794727,
2007-08-13, 09:27:00,VALID,918.492,VALID,0,VALID,83.4796,VALID,606.98,VALID,24.6619,VALID,266,VALID,0.845348,
2007-08-13, 09:28:00,VALID,918.489,VALID,0,VALID,82.8997,VALID,411.038,VALID,24.6554,VALID,234,VALID,1.05373,
2007-08-13, 09:29:00,VALID,918.497,VALID,0,VALID,82.5716,VALID,241.45,VALID,24.5423,VALID,251,VALID,1.48735,
2007-08-13, 09:30:00,VALID,918.492,VALID,0,VALID,84.3862,VALID,221.889,VALID,24.2983,VALID,258,VALID,1.0298,
2007-08-13, 09:31:00,VALID,918.492,VALID,0,VALID,85.7227,VALID,215.317,VALID,24.1297,VALID,253,VALID,1.42285,
2007-08-13, 09:32:00,VALID,918.492,VALID,0,VALID,86.2478,VALID,232.451,VALID,23.9504,VALID,228,VALID,0.759115,
2007-08-13, 09:33:00,VALID,918.486,VALID,0,VALID,86.6268,VALID,288.402,VALID,23.9347,VALID,272,VALID,0.510099,
2007-08-13, 09:34:00,VALID,918.472,VALID,0,VALID,86.8976,VALID,371.031,VALID,23.9575,VALID,330,VALID,0.451308,
2007-08-13, 09:35:00,VALID,918.456,VALID,0,VALID,86.8798,VALID,241.247,VALID,24.0322,VALID,275,VALID,0.492354,
2007-08-13, 09:36:00,VALID,918.442,VALID,0,VALID,86.9065,VALID,283.529,VALID,24.1229,VALID,302,VALID,0.36795,
2007-08-13, 09:37:00,VALID,918.426,VALID,0,VALID,86.0902,VALID,208.711,VALID,24.1654,VALID,274,VALID,0.549733,
2007-08-13, 09:38:00,VALID,918.411,VALID,0,VALID,84.8834,VALID,209.628,VALID,24.1294,VALID,240,VALID,0.638317,
2007-08-13, 09:39:00,VALID,918.379,VALID,0,VALID,85.6655,VALID,208.643,VALID,24.1161,VALID,259,VALID,0.572443,
2007-08-13, 09:40:00,VALID,918.37,VALID,0,VALID,85.5408,VALID,194.923,VALID,24.07,VALID,274,VALID,0.45419,
2007-08-13, 09:41:00,VALID,918.341,VALID,0,VALID,86.389,VALID,193.123,VALID,24.0839,VALID,287,VALID,0.28142,
2007-08-13, 09:42:00,VALID,918.339,VALID,0,VALID,86.2873,VALID,199.593,VALID,24.1424,VALID,340,VALID,0.178757,
2007-08-13, 09:43:00,VALID,918.331,VALID,0,VALID,86.3025,VALID,210.274,VALID,24.2398,VALID,9,VALID,0.313045,
2007-08-13, 09:44:00,VALID,918.324,VALID,0,VALID,85.7507,VALID,213.262,VALID,24.3308,VALID,9,VALID,0.252287,
2007-08-13, 09:45:00,VALID,918.322,VALID,0,VALID,85.4645,VALID,208.372,VALID,24.449,VALID,9,VALID,0.26617,
2007-08-13, 09:46:00,VALID,918.317,VALID,0,VALID,84.8186,VALID,228.596,VALID,24.5917,VALID,22,VALID,0.694404,
2007-08-13, 09:47:00,VALID,918.314,VALID,0,VALID,83.43,VALID,256.478,VALID,24.6541,VALID,28,VALID,0.813802,
2007-08-13, 09:48:00,VALID,918.317,VALID,0,VALID,83.2608,VALID,269.214,VALID,24.6547,VALID,32,VALID,1.25515,
2007-08-13, 09:49:00,VALID,918.315,VALID,0,VALID,82.6467,VALID,300.289,VALID,24.6934,VALID,22,VALID,0.749809,
2007-08-13, 09:50:00,VALID,918.318,VALID,0,VALID,81.4755,VALID,322.177,VALID,24.7912,VALID,34,VALID,0.223514,
2007-08-13, 09:51:00,VALID,918.311,VALID,0,VALID,81.1131,VALID,329.853,VALID,24.9046,VALID,53,VALID,0.8212,
2007-08-13, 09:52:00,VALID,918.328,VALID,0,VALID,81.6307,VALID,324.64,VALID,24.9602,VALID,44,VALID,0.769245,
2007-08-13, 09:53:00,VALID,918.325,VALID,0,VALID,82.0872,VALID,313.755,VALID,24.9755,VALID,36,VALID,1.17746,
2007-08-13, 09:54:00,VALID,918.332,VALID,0,VALID,81.4704,VALID,296.621,VALID,25.061,VALID,35,VALID,0.924964,
2007-08-13, 09:55:00,VALID,918.329,VALID,0,VALID,81.253,VALID,289.489,VALID,25.0541,VALID,353,VALID,0.566134,
2007-08-13, 09:56:00,VALID,918.343,VALID,0,VALID,81.15,VALID,293.7,VALID,25.1611,VALID,256,VALID,0.552641,
2007-08-13, 09:57:00,VALID,918.357,VALID,0,VALID,80.6846,VALID,301.529,VALID,25.2196,VALID,261,VALID,0.738554,
2007-08-13, 09:58:00,VALID,918.345,VALID,0,VALID,80.5892,VALID,296.044,VALID,25.165,VALID,242,VALID,0.512355,
2007-08-13, 09:59:00,VALID,918.346,VALID,0,VALID,81.1271,VALID,276.346,VALID,25.1185,VALID,238,VALID,0.74949,
2007-08-13, 10:00:00,VALID,918.336,VALID,0,VALID,81.9269,VALID,258.482,VALID,25.0015,VALID,247,VALID,0.853051,
2007-08-13, 10:01:00,VALID,918.323,VALID,0,VALID,81.96,VALID,242.452,VALID,24.8266,VALID,240,VALID,0.730646,
2007-08-13, 10:02:00,VALID,918.32,VALID,0,VALID,82.4318,VALID,232.552,VALID,24.6736,VALID,246,VALID,0.789244,
2007-08-13, 10:03:00,VALID,918.308,VALID,0,VALID,83.5559,VALID,241.009,VALID,24.6053,VALID,210,VALID,0.924414,
2007-08-13, 10:04:00,VALID,918.302,VALID,0,VALID,84.1611,VALID,235.898,VALID,24.6384,VALID,239,VALID,0.594308,
2007-08-13, 10:05:00,VALID,918.305,VALID,0,VALID,84.9114,VALID,225.047,VALID,24.6381,VALID,262,VALID,0.609197,
2007-08-13, 10:06:00,VALID,918.303,VALID,0,VALID,84.6075,VALID,203.566,VALID,24.5926,VALID,266,VALID,0.582986,
2007-08-13, 10:07:00,VALID,918.294,VALID,0,VALID,85.0131,VALID,176.974,VALID,24.5474,VALID,270,VALID,0.175174,
2007-08-13, 10:08:00,VALID,918.281,VALID,0,VALID,84.6494,VALID,164.103,VALID,24.5962,VALID,241,VALID,0.209549,
2007-08-13, 10:09:00,VALID,918.281,VALID,0,VALID,84.2794,VALID,164.29,VALID,24.6449,VALID,29,VALID,0.259115,
2007-08-13, 10:10:00,VALID,918.268,VALID,0,VALID,83.8661,VALID,176.193,VALID,24.7132,VALID,29,VALID,0.161577,
2007-08-13, 10:11:00,VALID,918.267,VALID,0,VALID,83.7886,VALID,191.017,VALID,24.7944,VALID,25,VALID,0.20113,
2007-08-13, 10:12:00,VALID,918.261,VALID,0,VALID,83.1083,VALID,199.949,VALID,24.8939,VALID,27,VALID,0.0562119,
2007-08-13, 10:13:00,VALID,918.25,VALID,0,VALID,81.9664,VALID,210.732,VALID,24.9596,VALID,61,VALID,0.37534,
2007-08-13, 10:14:00,VALID,918.246,VALID,0,VALID,81.9803,VALID,229.836,VALID,24.8497,VALID,63,VALID,1.1854,
2007-08-13, 10:15:00,VALID,918.221,VALID,0,VALID,82.4775,VALID,270.946,VALID,24.4933,VALID,65,VALID,2.18266,
2007-08-13, 10:16:00,VALID,918.224,VALID,0,VALID,84.0492,VALID,638.972,VALID,24.2691,VALID,79,VALID,1.4122,
2007-08-13, 10:17:00,VALID,918.221,VALID,0,VALID,85.0551,VALID,817.984,VALID,24.4705,VALID,15,VALID,0.758203,
2007-08-13, 10:18:00,VALID,918.216,VALID,0,VALID,83.8242,VALID,610.41,VALID,24.7175,VALID,289,VALID,0.673549,
2007-08-13, 10:19:00,VALID,918.206,VALID,0,VALID,83.4961,VALID,507.795,VALID,24.8894,VALID,36,VALID,0.81686,
2007-08-13, 10:20:00,VALID,918.188,VALID,0,VALID,83.6194,VALID,383.886,VALID,24.9606,VALID,34,VALID,1.31886,
2007-08-13, 10:21:00,VALID,918.172,VALID,0,VALID,83.0701,VALID,522.738,VALID,25.1527,VALID,6,VALID,1.04668,
2007-08-13, 10:22:00,VALID,918.163,VALID,0,VALID,81.81,VALID,420.411,VALID,25.2954,VALID,30,VALID,0.704268,
2007-08-13, 10:23:00,VALID,918.141,VALID,0,VALID,81.4259,VALID,362.014,VALID,25.4549,VALID,55,VALID,0.569767,
2007-08-13, 10:24:00,VALID,918.141,VALID,0,VALID,81.1309,VALID,431.602,VALID,25.5788,VALID,42,VALID,0.758878,
2007-08-13, 10:25:00,VALID,918.126,VALID,0,VALID,80.991,VALID,712.057,VALID,25.65,VALID,31,VALID,1.22274,
2007-08-13, 10:26:00,VALID,918.132,VALID,0,VALID,81.0444,VALID,461.913,VALID,25.8583,VALID,28,VALID,1.06678,
2007-08-13, 10:27:00,VALID,918.145,VALID,0,VALID,79.75,VALID,640.228,VALID,26.1025,VALID,353,VALID,0.92359,
2007-08-13, 10:28:00,VALID,918.143,VALID,0,VALID,78.6411,VALID,439.82,VALID,26.174,VALID,27,VALID,1.77689,
2007-08-13, 10:29:00,VALID,918.153,VALID,0,VALID,78.0117,VALID,787.656,VALID,26.0017,VALID,37,VALID,1.44815,
2007-08-13, 10:30:00,VALID,918.137,VALID,0,VALID,78.3359,VALID,432.23,VALID,25.9432,VALID,4,VALID,1.44395,
2007-08-13, 10:31:00,VALID,918.126,VALID,0,VALID,79.5338,VALID,414.74,VALID,26.015,VALID,50,VALID,0.606831,
2007-08-13, 10:32:00,VALID,918.106,VALID,0,VALID,78.9577,VALID,623.298,VALID,26.1012,VALID,358,VALID,0.853468,
2007-08-13, 10:33:00,VALID,918.088,VALID,0,VALID,78.6958,VALID,797.539,VALID,26.15,VALID,328,VALID,0.735863,
2007-08-13, 10:34:00,VALID,918.08,VALID,0,VALID,78.6729,VALID,656.971,VALID,26.2378,VALID,313,VALID,0.566501,
2007-08-13, 10:35:00,VALID,918.064,VALID,0,VALID,78.5394,VALID,318.73,VALID,26.4263,VALID,348,VALID,0.738839,
2007-08-13, 10:36:00,VALID,918.047,VALID,0,VALID,77.372,VALID,263.475,VALID,26.4329,VALID,34,VALID,0.660528,
2007-08-13, 10:37:00,VALID,918.055,VALID,0,VALID,77.8311,VALID,250.96,VALID,26.2612,VALID,52,VALID,0.542151,